ONEWEB-0329, 49107

Orbit data source: Space-Track

ONEWEB-0329, 49107 is a payload satellite owned by One Web (NAA) (UK) in LEO that was launched on Sat, 21 Aug 2021 UTC via a SOYUZ-2-1B launch vehicle from the Tyuratam Missile And Space Complex (TTMTR). Payload-class satellites include a variety of spacecraft equipped with specific instruments for various scientific and technological missions. These include communications satellites like Starlink; space stations such as the ISS; scientific satellites like the Hubble; Earth observation satellites from companies like Planet Labs, Umbra, and HawkEye 360; GPS; miniature CubeSats for education and research; and military/defense satellites.

Loading next visibility...
Identifier
49107, 2021-075AJ
Orbit
LEO
Country
Flag of UKUK
Related business
Manufacturer
One Web
Mission
Operational Commercial Communications
Bus & Motor
ARROW, Unknown motor
Mass
148 kg wet, ~140 kg dry
Launch date (UTC)
2021-08-21 (5 years ago)
Launch vehicle
SOYUZ-2-1B
Launch site
Tyuratam Missile And Space Complex (TTMTR)
Object type
Payload
Rocket body
Debris
Shape & HBR
Trap Box + 2 Pan, 6.7 m
Radar Cross Section
3.464 m², Large (>1 m²)

Expand to show TLE details & history
Last TLE update: 21 hours ago

TLE from 21 hours ago
0 ONEWEB-0329
1 49107U 21075AJ  26175.24390763 -.00000066  00000-0 -20408-3 0  9992
2 49107  87.9130   4.4645 0002035  87.4875 272.6490 13.17648448234514
Epoch: 2026-06-24T05:51Z
TLE epoch observation values (Epoch: 2026-06-24T05:51:13.619Z)
Latitude
0.00004°
Longitude
4.25385°
Altitude
1,196.543 km
Speed
7.256 km/s
True Right ascension
00h 17m 51s
True Declination
0° 00' 00"
Sunlit
Object was in daylight at epoch
Visualization orbit readout
Latitude
Unknown
Longitude
Unknown
Altitude
Unknown
Speed
Unknown
Apparent Right ascension
Unknown
Apparent Declination
Unknown
Sunlit
N/A
Visualization observer readout
Local Sidereal Time
13:58:28
Azimuth
Unknown
Elevation
Unknown
Doppler factor
Unknown
Orbital elements
Apogee altitude
1,192.364 km
Perigee altitude
1,189.284 km
Semi-major axis
7,568.961 km
Eccentricity
0.0002
Inclination
87.913°
RAAN
4.4645°
Arg. of periapsis
87.4875°
True anomaly
272.62571°
Mean anomaly
272.649°
Eccentric anomaly
272.63735°
Mean motion
3.29601 °/min
Orbital period
109.22 mins
BSTAR
-0.00020408
Loading maneuver chart data...
Computing Atmospheric mass density...
Loading historical data...
Loading historical data...
Loading historical data...
Loading historical data...
Loading historical data...
Loading historical data...
Loading historical data...

Documentation

Showing up to 5 results
|